User: anonymous   Login
Location: Howard City Library
(37.4684°N, 96.2639°W)
Time: 16:37:18
(UTC+00:00)
Language:

Cosmos 2016 Rocket - Orbit

View from above orbital plane
View from above orbital plane
View from above satellite
View from above satellite

Ground track
Ground track

The orbit data is extracted from the following two-line orbital elements,

1 19922U 89028B   20151.60963059 -.00000033 +00000-0 -48495-4 0  9999
2 19922 082.9574 346.7667 0037821 104.4317 256.1043 13.77217791565417
Epoch (UTC): 30 May 2020 14:37:52
Eccentricity: 0.0037821
inclination: 82.9574°
perigee height: 946 km
apogee height: 1001 km
right ascension of ascending node: 346.7667°
argument of perigee: 104.4317°
revolutions per day: 13.77217791
mean anomaly at epoch: 256.1043°
orbit number at epoch: 56541

The dashed part of the orbit path shows where the satellite is in the earth's shadow,  

DLR